Terug naar catalogus

THORAD AGENA D DEB

ActiefLEO
NORAD 42499·DEBRIS·🇺🇸 United States

Gelanceerd Apr 8, 1970 vanaf Vandenberg Space Force Base

Loading…

Volgende Passages (komende 24 uur)

TLE

VersSource: Space-Track

Epoch: Sep 13, 2026, 17:44 UTC

1 42499U 70025RD  26256.73947332  .00000830  00000-0  84791-3 0  9994
2 42499 100.0874 174.0223 0009086 345.3621  14.7264 13.79934875643560

Volg THORAD AGENA D DEB in realtime met AllMySat

Download on the App Store